Miscellaneous Local Product
Issued by NWS Hastings, NE

Home | Current Version | Previous Version | Graphics & Text | Print | Product List | Glossary On
Versions: 1 2 3 4 5 6 7 8 9 10 11 12 13 14 15 16 17 18 19 20 21 22 23 24 25 26 27 28 29 30 31 32 33 34 35 36 37 38 39 40 41 42 43 44 45 46 47 48 49 50
000
AXUS43 KGID 220202
MISGRI

GID CWA HOURLY WEATHER ROUNDUP
NATIONAL WEATHER SERVICE HASTINGS NE
800 PM CST SUN DEC 21 2014

NOTE: "FAIR" INDICATES FEW OR NO CLOUDS BELOW 12,000 FEET WITH NO
SIGNIFICANT WEATHER AND/OR OBSTRUCTIONS TO VISIBILITY.

...SOUTH CENTRAL NEBRASKA...

CITY           SKY/WX    TMP DP  RH WIND       PRES   REMARKS
GRAND ISLAND   CLOUDY    40  38  93 S16       29.58F WCI  31
HASTINGS       CLOUDY    40  38  93 S14G22    29.57S WCI  32
KEARNEY        CLOUDY    39  36  87 SE17      29.56S WCI  30
ORD            CLOUDY    38  36  92 S9        29.54R WCI  31
YORK           CLOUDY    39  39 100 S15       29.61F WCI  31
AURORA         CLOUDY    40  40 100 S16       29.58F WCI  32
LEXINGTON      CLOUDY    40  37  87 SW6       29.54S
HOLDREGE       CLOUDY    38  37  93 S13G18    29.56R WCI  30
HEBRON         CLOUDY    42  40  91 S10       29.65F FOG

...NEBRASKA PANHANDLE...

CITY           SKY/WX    TMP DP  RH WIND       PRES   REMARKS
CHADRON        PTCLDY    32  28  85 W7        29.48R WCI  26
ALLIANCE       PTCLDY    32  30  92 W6        29.48S WCI  26
SCOTTSBLUFF    MOCLDY    36  30  79 CALM      29.51R
SIDNEY         MOCLDY    38  31  76 W9        29.52S WCI  31

...WESTERN AND NORTH CENTRAL NEBRASKA...

CITY           SKY/WX    TMP DP  RH WIND       PRES   REMARKS
VALENTINE      CLOUDY    37  31  78 SW8       29.42R WCI  31
AINSWORTH      CLOUDY    36  32  84 S14       29.44R WCI  27
ONEILL         CLOUDY    38  37  97 S13       29.49S FOG     WCI  30
BROKEN BOW     CLOUDY    38  35  89 S9        29.51F WCI  31
IMPERIAL       CLOUDY    37  31  78 CALM      29.50F
NORTH PLATTE   CLOUDY    35  31  85 S9        29.50F WCI  28
MCCOOK         CLOUDY    38  34  85 S6        29.53F WCI  33

...EASTERN NEBRASKA...

CITY           SKY/WX    TMP DP  RH WIND       PRES   REMARKS
NORFOLK        CLOUDY    40  38  93 S16       29.57F WCI  31
SO SIOUX CITY  CLOUDY    41  39  93 S10       29.64F FOG
TEKAMAH        CLOUDY    42  40  92 S17       29.66F FOG
COLUMBUS       CLOUDY    41  37  87 S15       29.62F
ALBION         DRIZZLE   39  37  89 SE13G18   29.55F WCI  32
OMAHA EPPLEY   DRIZZLE   42  41  96 S17       29.70F FOG
OFFUTT AFB     CLOUDY    42  40  95 SE13      29.69F FOG
MILLARD        CLOUDY    42  40  93 S10       29.69F FOG
LINCOLN        CLOUDY    42  41  96 S14       29.67F FOG
NEBRASKA CITY  DRIZZLE   41  41 100 S14       29.71F
BEATRICE       CLOUDY    42  41  97 S12       29.67F FOG
FALLS CITY     CLOUDY    43  41  93 S14       29.73F FOG

...NORTHERN KANSAS...

CITY           SKY/WX    TMP DP  RH WIND       PRES   REMARKS
GOODLAND       CLOUDY    40  32  73 W10       29.54S WCI  33
HILL CITY      CLOUDY    42  37  82 S9        29.58S
NORTON         PTCLDY    39  34  81 SE12      29.54F WCI  32
PHILLIPSBURG   CLOUDY    43  43 100 SE6       29.59F
SMITH CENTER   CLOUDY    39  39 100 S13       29.61R WCI  32
BELOIT         CLOUDY    43  43 100 SE13G20   29.62F
HAYS           CLOUDY    41  34  75 S10       29.60F
RUSSELL        CLOUDY    42  40  92 S15       29.61R
CONCORDIA      CLOUDY    43  42  97 S14       29.64F
SALINA         LGT RAIN  45  42  89 S10       29.67S FOG
TOPEKA         CLOUDY    46  42  86 S14       29.74F



USA.gov is the U.S. government's official web portal to all federal, state and local government web resources and services.